Location: Bennemühlen
(52.5740°N, 9.7135°E)
Time: 07:31:47
(UTC+00:00)

COSMOS 2428 - Pass Details

Date: 19 May 2025
Orbit: 845 x 853 km, 70.9° (Epoch: 22 June)

Event Time Altitude Azimuth Distance (km) Brightness Sun altitude
Rises 22:54:29 0° 328° (NNW) 3,433 7.0 -17.3°
Reaches altitude 10° 22:57:12 10° 338° (NNW) 2,495 6.3 -17.3°
Maximum altitude 23:02:22 33° 43° (NE) 1,394 4.2 -17.4°
Drops below altitude 10° 23:07:31 10° 107° (ESE) 2,486 4.9 -17.4°
Enters shadow 23:09:52 - 116° (ESE) 3,295 5.5 -17.4°
